Dewpoint
71 70 70 70 70 70 69 70 70 69 70 70 70 70 70 69 69 69 69 70 70 69
71 71 71 70 70 69 72 72 71 71 71 71 71 71 71 70 69 69 70 69 69 70
72 72 72 72 72 72 72 72 73 72 72 71 71 71 72 70 71 70 70 69 69 69
71 72 72 72 72 72 72 72 72 72 72 71 71 71 72 71 70 71 71 70 69 70
72 72 71 71 71 71 70 72 72 73 72 72 72 71 71 70 70 70 70 69 70 70
71 68 69 68 67 67 68 68 69 69 69 70 71 71 71 71 70 69 69 70 69 69
68 67 66 66 66 66 66 66 66 66 68 68 67 66 66 68 69 70 70 71 71 69
66 66 65 66 66 66 66 66 66 66 66 65 63 62 65 65 65 65 65 66 66 66
65 65 65 65 65 64 64 65 64 65 64 63 61 60 61 62 63 64 64 64 65 65
65 64 64 64 63 62 62 62 62 61 62 62 61 60 61 61 61 61 62 63 63 62
64 63 63 63 62 61 60 59 59 59 61 60 57 57 59 60 61 60 61 61 62 62
63 62 61 60 59 59 59 60 60 60 59 58 55 52 53 57 58 57 58 58 59 61
61 60 59 59 59 59 60 61 60 58 57 53 54 50 51 52 53 54 54 55 56 54
59 59 59 59 60 59 60 60 59 57 55 54 52 52 50 50 52 51 51 51 52 54
Wind_Speed
9 6 6 2 2 8 12 9 8 11 12 12 11 11 10 9 10 10 10 10 8 6
10 8 6 7 5 8 9 7 9 10 10 11 11 11 10 10 11 10 10 10 10 9
7 7 6 6 6 8 6 4 6 9 9 10 10 10 11 10 10 10 11 11 11 11
7 6 6 6 6 6 4 3 6 7 8 8 9 9 9 9 8 11 11 11 11 11
5 9 8 7 7 7 6 5 4 4 4 4 5 8 11 11 9 12 11 11 11 12
10 10 11 10 9 8 8 8 8 7 6 3 3 3 2 4 6 9 8 7 10 12
12 11 10 9 7 6 5 6 5 5 5 6 6 6 6 5 4 4 2 3 5 6
10 9 11 9 8 6 5 5 4 4 5 5 4 5 4 3 3 3 3 3 3 3
9 8 7 7 8 7 6 6 6 6 6 5 5 7 6 3 2 3 3 4 4 5
10 8 7 8 8 5 5 4 4 3 3 4 5 9 8 6 4 4 5 6 7 7
11 9 8 6 7 5 3 3 3 2 2 5 9 11 8 5 3 3 3 2 3 4
10 9 8 7 8 6 4 3 4 4 5 6 8 15 14 7 3 4 3 3 3 4
11 10 9 8 8 7 6 6 6 8 6 7 7 13 13 12 6 7 7 6 4 3
11 10 10 9 8 9 9 9 8 7 5 5 6 6 9 9 5 6 7 6 6 6
Wind_Direction
211 219 231 260 12 323 304 231 227 222 221 221 214 210 210 220 225 220 225 230 227 227
202 211 202 184 186 242 269 241 220 213 215 214 214 212 208 218 221 227 228 234 234 231
196 217 203 194 207 212 215 193 193 201 202 204 202 206 207 209 212 218 227 231 231 232
191 187 148 166 166 111 103 109 156 167 184 211 189 195 204 222 219 223 229 230 227 231
162 136 123 110 101 100 100 92 87 127 167 201 200 211 199 212 224 230 232 233 229 233
142 137 130 124 117 110 105 93 93 97 94 86 83 75 42 290 284 246 247 248 237 248
143 135 120 112 107 101 88 86 88 84 88 88 88 79 64 51 25 15 37 322 299 272
125 124 124 119 107 92 79 76 77 87 88 80 69 49 46 44 32 21 34 46 20 39
119 118 114 112 107 103 92 78 66 67 82 72 65 19 36 26 31 18 355 335 339 336
137 136 136 129 117 105 92 87 82 69 72 72 42 25 38 26 33 10 12 3 349 328
147 150 145 138 119 111 100 78 77 64 95 97 51 41 45 46 53 66 59 40 2 341
152 159 160 149 136 116 111 90 83 93 92 88 60 24 16 356 351 349 338 354 358 344
163 174 158 146 126 115 109 97 101 108 92 68 54 27 14 0 336 316 317 303 310 66
156 156 138 124 120 111 108 110 112 108 97 72 35 24 11 7 340 330 320 324 329 351